When you browse on this site, cookies collect data to enhance your experience and personalize the content and advertising you see.
Visit our Privacy Policy to learn more. By continuing to use the site, you agree to this use of cookies and data.
  • In Hungary
  • List of Countries
  • For 7 days
  • Water Temperature
  • Satellite Maps
  • Weather Map
  • News
  • Weather Widgets
  • user-avatar
    Login

    Hourly Weather Marianowka

    Today, 19 June, Wednesday

    Time Temperature Precipitation Wind Pressure Humidity
    00:00 +15°C° 0 mm 0 mps 717 mmHg 92%
    01:00 +15°C° 0 mm 0 mps 717 mmHg 92%
    02:00 +14°C° 0 mm 0 mps 717 mmHg 92%
    03:00 +14°C° 0 mm 0 mps 717 mmHg 91%
    04:00 +14°C° 0 mm 0 mps 716 mmHg 91%
    05:00 +16°C° 0 mm 0 mps 717 mmHg 86%
    06:00 +18°C° 0 mm 0 mps 717 mmHg 82%
    07:00 +20°C° 0 mm 0 mps 717 mmHg 78%
    08:00 +23°C° 0 mm 1 mps 717 mmHg 71%
    09:00 +25°C° 0 mm 1 mps 717 mmHg 65%
    10:00 +26°C° 0 mm 1 mps 717 mmHg 59%
    11:00 +27°C° 0.1 mm 1 mps 717 mmHg 58%
    12:00 +27°C° 0.1 mm 1 mps 716 mmHg 57%
    13:00 +27°C° 0.1 mm 1 mps 716 mmHg 56%
    14:00 +27°C° 0.4 mm 1 mps 716 mmHg 58%
    15:00 +27°C° 0.4 mm 1 mps 716 mmHg 60%
    16:00 +27°C° 0.4 mm 1 mps 715 mmHg 62%
    17:00 +25°C° 0.6 mm 1 mps 715 mmHg 69%
    18:00 +24°C° 0.6 mm 1 mps 715 mmHg 76%
    19:00 +21°C° 0.6 mm 0 mps 715 mmHg 83%
    20:00 +21°C° 0 mm 1 mps 715 mmHg 84%
    21:00 +20°C° 0 mm 1 mps 715 mmHg 85%
    22:00 +19°C° 0 mm 1 mps 715 mmHg 87%
    23:00 +19°C° 0 mm 1 mps 714 mmHg 87%

    Tomorrow, 20 June, Thursday

    Time Temperature Precipitation Wind Pressure Humidity
    00:00 +18°C° 0 mm 1 mps 714 mmHg 87%
    01:00 +18°C° 0 mm 1 mps 714 mmHg 88%
    02:00 +18°C° 0 mm 1 mps 714 mmHg 88%
    03:00 +18°C° 0 mm 1 mps 714 mmHg 88%
    04:00 +18°C° 0 mm 1 mps 714 mmHg 88%
    05:00 +19°C° 0 mm 1 mps 714 mmHg 85%
    06:00 +21°C° 0 mm 1 mps 715 mmHg 82%
    07:00 +22°C° 0 mm 1 mps 715 mmHg 80%
    08:00 +24°C° 0.1 mm 1 mps 715 mmHg 71%
    09:00 +25°C° 0.1 mm 1 mps 715 mmHg 63%
    10:00 +27°C° 0.1 mm 1 mps 716 mmHg 55%
    11:00 +28°C° 0.1 mm 1 mps 716 mmHg 53%
    12:00 +28°C° 0.1 mm 1 mps 715 mmHg 50%
    13:00 +29°C° 0.1 mm 1 mps 715 mmHg 48%
    14:00 +28°C° 0.2 mm 1 mps 715 mmHg 51%
    15:00 +28°C° 0.2 mm 1 mps 715 mmHg 55%
    16:00 +27°C° 0.2 mm 1 mps 715 mmHg 58%
    17:00 +26°C° 0.6 mm 1 mps 715 mmHg 66%
    18:00 +24°C° 0.6 mm 1 mps 715 mmHg 75%
    19:00 +22°C° 0.6 mm 1 mps 715 mmHg 83%
    20:00 +21°C° 0.6 mm 1 mps 715 mmHg 86%
    21:00 +19°C° 0.6 mm 1 mps 715 mmHg 89%
    22:00 +18°C° 0.6 mm 1 mps 716 mmHg 92%
    23:00 +18°C° 0.2 mm 1 mps 716 mmHg 92%

    Day after tomorrow, 21 June, Friday

    Time Temperature Precipitation Wind Pressure Humidity
    00:00 +18°C° 0.2 mm 1 mps 716 mmHg 91%
    01:00 +18°C° 0.2 mm 1 mps 716 mmHg 91%
    02:00 +16°C° 0.3 mm 1 mps 716 mmHg 92%
    03:00 +16°C° 0.3 mm 1 mps 716 mmHg 93%
    04:00 +16°C° 0.3 mm 1 mps 716 mmHg 95%
    05:00 +18°C° 0.1 mm 1 mps 717 mmHg 93%
    06:00 +19°C° 0.1 mm 1 mps 717 mmHg 92%
    07:00 +20°C° 0.1 mm 1 mps 717 mmHg 90%
    08:00 +20°C° 0.7 mm 1 mps 717 mmHg 91%
    09:00 +19°C° 0.7 mm 1 mps 717 mmHg 93%
    10:00 +18°C° 0.7 mm 2 mps 717 mmHg 94%
    11:00 +19°C° 0.2 mm 1 mps 717 mmHg 92%
    12:00 +20°C° 0.2 mm 1 mps 717 mmHg 91%
    13:00 +20°C° 0.2 mm 1 mps 717 mmHg 89%
    14:00 +21°C° 0.4 mm 1 mps 717 mmHg 84%
    15:00 +22°C° 0.4 mm 1 mps 717 mmHg 80%
    16:00 +23°C° 0.4 mm 2 mps 717 mmHg 75%
    17:00 +22°C° 0.5 mm 1 mps 717 mmHg 79%
    18:00 +21°C° 0.5 mm 1 mps 717 mmHg 84%
    19:00 +20°C° 0.5 mm 1 mps 717 mmHg 88%
    20:00 +19°C° 0.4 mm 1 mps 717 mmHg 90%
    21:00 +18°C° 0.4 mm 1 mps 717 mmHg 93%
    22:00 +16°C° 0.4 mm 1 mps 718 mmHg 95%
    23:00 +16°C° 0.1 mm 1 mps 718 mmHg 95%

    22 June, Saturday

    Time Temperature Precipitation Wind Pressure Humidity
    00:00 +16°C° 0.1 mm 1 mps 718 mmHg 96%
    01:00 +15°C° 0.1 mm 2 mps 718 mmHg 97%
    02:00 +15°C° 0 mm 2 mps 718 mmHg 97%
    03:00 +15°C° 0 mm 2 mps 718 mmHg 97%
    04:00 +16°C° 0 mm 2 mps 718 mmHg 98%
    05:00 +16°C° 0 mm 2 mps 718 mmHg 96%
    06:00 +16°C° 0 mm 3 mps 719 mmHg 94%
    07:00 +17°C° 0 mm 3 mps 719 mmHg 92%
    08:00 +17°C° 0 mm 3 mps 719 mmHg 90%
    09:00 +18°C° 0 mm 3 mps 719 mmHg 88%
    10:00 +18°C° 0 mm 3 mps 719 mmHg 87%
    11:00 +19°C° 0 mm 3 mps 719 mmHg 85%
    12:00 +19°C° 0 mm 3 mps 718 mmHg 84%
    13:00 +20°C° 0 mm 3 mps 718 mmHg 83%
    14:00 +20°C° 0.3 mm 4 mps 718 mmHg 83%
    15:00 +20°C° 0.3 mm 4 mps 718 mmHg 82%
    16:00 +21°C° 0.3 mm 4 mps 718 mmHg 82%
    17:00 +20°C° 0.4 mm 4 mps 717 mmHg 85%
    18:00 +19°C° 0.4 mm 4 mps 717 mmHg 88%
    19:00 +18°C° 0.4 mm 4 mps 717 mmHg 91%
    20:00 +18°C° 0.1 mm 4 mps 717 mmHg 93%
    21:00 +17°C° 0.1 mm 3 mps 717 mmHg 95%
    22:00 +17°C° 0.1 mm 3 mps 717 mmHg 97%
    23:00 +17°C° 0.1 mm 3 mps 717 mmHg 97%

    23 June, Sunday

    Time Temperature Precipitation Wind Pressure Humidity
    00:00 +17°C° 0.1 mm 3 mps 717 mmHg 97%
    01:00 +17°C° 0.1 mm 2 mps 717 mmHg 97%
    02:00 +16°C° 0.2 mm 2 mps 717 mmHg 98%
    03:00 +16°C° 0.2 mm 2 mps 717 mmHg 98%
    04:00 +16°C° 0.2 mm 2 mps 717 mmHg 98%
    05:00 +15°C° 0.3 mm 2 mps 717 mmHg 98%
    06:00 +15°C° 0.3 mm 2 mps 718 mmHg 98%
    07:00 +15°C° 0.3 mm 2 mps 718 mmHg 98%
    08:00 +15°C° 0.9 mm 2 mps 718 mmHg 97%
    09:00 +13°C° 0.9 mm 3 mps 718 mmHg 97%
    10:00 +13°C° 0.9 mm 3 mps 718 mmHg 96%
    11:00 +14°C° 0 mm 3 mps 719 mmHg 93%
    12:00 +14°C° 0 mm 3 mps 719 mmHg 90%
    13:00 +16°C° 0 mm 3 mps 719 mmHg 87%
    14:00 +15°C° 0 mm 4 mps 720 mmHg 87%
    15:00 +15°C° 0 mm 4 mps 720 mmHg 87%
    16:00 +15°C° 0 mm 4 mps 720 mmHg 87%
    17:00 +14°C° 0 mm 3 mps 720 mmHg 88%
    18:00 +14°C° 0 mm 3 mps 720 mmHg 89%
    19:00 +14°C° 0 mm 2 mps 721 mmHg 90%
    20:00 +13°C° 0 mm 2 mps 721 mmHg 92%
    21:00 +12°C° 0 mm 2 mps 721 mmHg 94%
    22:00 +11°C° 0 mm 1 mps 722 mmHg 96%
    23:00 +11°C° 0 mm 1 mps 722 mmHg 95%

    24 June, Monday

    Time Temperature Precipitation Wind Pressure Humidity
    00:00 +11°C° 0 mm 1 mps 722 mmHg 93%
    01:00 +10°C° 0 mm 1 mps 722 mmHg 92%
    02:00 +10°C° 0 mm 1 mps 722 mmHg 91%
    03:00 +10°C° 0 mm 1 mps 723 mmHg 91%
    04:00 +10°C° 0 mm 1 mps 723 mmHg 90%
    05:00 +12°C° 0 mm 1 mps 723 mmHg 87%
    06:00 +14°C° 0 mm 1 mps 724 mmHg 83%
    07:00 +15°C° 0 mm 2 mps 724 mmHg 79%
    08:00 +17°C° 0 mm 2 mps 724 mmHg 73%
    09:00 +18°C° 0 mm 2 mps 724 mmHg 67%
    10:00 +19°C° 0 mm 2 mps 725 mmHg 61%
    11:00 +20°C° 0 mm 2 mps 725 mmHg 59%
    12:00 +20°C° 0 mm 3 mps 725 mmHg 58%
    13:00 +21°C° 0 mm 3 mps 725 mmHg 56%
    14:00 +21°C° 0 mm 3 mps 724 mmHg 57%
    15:00 +21°C° 0 mm 3 mps 724 mmHg 58%
    16:00 +20°C° 0 mm 3 mps 724 mmHg 59%
    17:00 +19°C° 0 mm 2 mps 724 mmHg 64%
    18:00 +18°C° 0 mm 2 mps 724 mmHg 69%
    19:00 +18°C° 0 mm 1 mps 724 mmHg 73%
    20:00 +15°C° 0 mm 1 mps 724 mmHg 75%
    21:00 +14°C° 0 mm 1 mps 724 mmHg 77%
    22:00 +12°C° 0 mm 1 mps 725 mmHg 79%
    23:00 +12°C° 0 mm 1 mps 725 mmHg 80%
    Show more